Regional Weather Roundup
Issued by NWS

Home | Current Version | Previous Version | Graphics & Text | Print | Product List | Glossary On
Versions: 1 2 3 4 5 6 7 8 9 10 11 12 13 14 15 16 17 18 19 20 21 22 23 24 25 26 27 28 29 30 31 32 33 34 35 36 37 38 39 40 41 42 43 44 45 46 47 48 49 50
000
ASUS45 KBOU 190407
RWRCO

WEATHER ROUNDUP FOR COLORADO
NATIONAL WEATHER SERVICE DENVER/BOULDER CO
1000 PM MDT SAT APR 18 2015

NOTE: "FAIR" INDICATES FEW OR NO CLOUDS BELOW 12000 FEET WITH NO
SIGNIFICANT WEATHER AND/OR OBSTRUCTIONS TO VISIBILITY.

COZ001>005-013-030-031-190500-
...NORTHWEST COLORADO...

CITY           SKY/WX    TMP DP  RH WIND       PRES   REMARKS
CRAIG          CLOUDY    35  32  88 SW10      30.06R WCI  27
HAYDEN         CLOUDY    34  30  86 N6        30.05R WCI  29
MEEKER         MOCLDY    35  31  85 CALM      30.07R
MOUNT WERNER   NOT AVBL
STEAMBOAT SPGS CLOUDY    33  31  93 NE3       30.05R
WALDEN         CLOUDY    30  28  93 N10       30.04R WCI  21
$$

COZ006>008-011-190500-
...WEST CENTRAL VALLEYS...

CITY           SKY/WX    TMP DP  RH WIND       PRES   REMARKS
GRAND JUNCTION MOCLDY    40  38  93 SE7       30.07R
MONTROSE       MOCLDY    38  37  97 NW7       30.08R
EAGLE          MOCLDY    36  36 100 CALM      30.06S
RIFLE          CLOUDY    34  32  92 SE3       30.05F
DELTA          CLOUDY    42  38  86 SW5       30.08R
NUCLA          MOCLDY    43  37  81 E6        30.09R
$$

COZ017>023-064>068-190500-
...SOUTHWEST COLORADO...

CITY           SKY/WX    TMP DP  RH WIND       PRES   REMARKS
DURANGO        PTCLDY    42  23  46 S7        29.98S
CORTEZ         PTCLDY    47  34  60 NW6       30.03R
PAGOSA SPRINGS PTCLDY    36  31  82 CALM      29.99S
TELLURIDE      CLOUDY    33  28  79 W7        30.11S WCI  27
WOLF CREEK PAS MOCLDY    21  16  79 N6G26     30.08R WCI  14
$$

COZ009-010-012-014-032>034-037-058>063-190500-
...CENTRAL COLORADO...

CITY           SKY/WX    TMP DP  RH WIND       PRES   REMARKS
ASPEN          MIX PCPN  31  30  96 CALM      30.04R
BUENA VISTA    CLOUDY    35  23  59 W10       29.98R WCI  28
COPPER MTN     CLOUDY    25  19  80 MISG      30.05R
BERTHOUD PASS  CLOUDY    14   9  79 N10G35    30.04R WCI   1
COTTONWOOD PAS CLOUDY    32  21  64 NW6       30.00S WCI  26
GUNNISON       MOCLDY    32  25  74 E3        30.03S
KREMMLING      MOCLDY    36  27  69 NW5       30.04R
LEADVILLE      CLOUDY    25  21  85 NW7       30.01R WCI  17
MONARCH PASS   CLOUDY    19  18  93 MISG      30.12S
SALIDA         CLOUDY    39  27  62 W3        30.04R
SUNLIGHT       MOCLDY   N/A N/A N/A N8G21     30.11F
WILKERSON PASS MOCLDY    21  19  93 N13G22    30.02S WCI   9
$$

COZ069>075-190500-
...SAN LUIS VALLEY/SANGRE DE CRISTO MOUNTAINS...

CITY           SKY/WX    TMP DP  RH WIND       PRES   REMARKS
ALAMOSA        MOCLDY    32  29  88 CALM      29.96R
LA VETA PASS   MOCLDY    27  23  86 S5        29.98R WCI  21
SAGUACHE       MOCLDY    34  27  75 N8        29.98R WCI  27
$$

COZ035-036-038>040-190500-
...NORTHERN COLORADO FRONT RANGE...

CITY           SKY/WX    TMP DP  RH WIND       PRES   REMARKS
DENVER INTL AP MOCLDY    41  35  79 N14       29.95R
DMNS CITY PARK   N/A     42  32  67 NE5G13    29.96R
AURORA         MOCLDY    39  35  83 N14       29.97R
FRONT RANGE AP NOT AVBL
ERIE MUNI ARPT PTCLDY    39  35  86 CALM      29.96R
BOULDER MUN AP PTCLDY    39  34  81 CALM      29.95R
CENTENNIAL     MOCLDY    39  34  82 N10       29.96R
BROOMFIELD     PTCLDY    41  36  81 NW5       29.96R
FORT COLLINS   CLEAR     43  30  61 N9        29.97R
LONGMONT       CLEAR     42  34  74 W3        29.98R
$$

COZ041-046-047-076>085-087-088-190500-
...PIKES PEAK/PALMER DIVIDE AND SOUTHERN FOOTHILLS...

CITY           SKY/WX    TMP DP  RH WIND       PRES   REMARKS
COLO. SPRINGS  MOCLDY    39  31  72 NW21      29.93R
A. F. ACADEMY  NOT AVBL
ELLICOTT       MOCLDY   N/A N/A N/A N16       29.90S
FALCON         MOCLDY    36  30  79 N15G22    29.94R
FORT CARSON    NOT AVBL
LIMON          LGT RAIN  40  37  89 N17       29.88S
MONUMENT HILL  FLURRIES  32  32 100 NW12      29.94R WCI  23
TRINIDAD       MOCLDY    40  33  76 W9        29.90S
$$

COZ042>045-048>051-090-091-190500-
...NORTHEAST COLORADO...

CITY           SKY/WX    TMP DP  RH WIND       PRES   REMARKS
GREELEY ARPT   PTCLDY    41  30  65 N12       29.97R
AKRON          CLOUDY    41  39  93 N14       29.88R
BURLINGTON     CLOUDY    46  41  82 NW10      29.82
WRAY           CLOUDY    49  42  78 N17G23    29.83S
STERLING       DRIZZLE   45  41  87 N15       29.89R
HOLYOKE        CLOUDY    48  41  76 N16       29.86R
FORT MORGAN    CLOUDY    44  37  77 N18G24    29.92R
$$

COZ086-089-092>099-190500-
...SOUTHEAST COLORADO...

CITY           SKY/WX    TMP DP  RH WIND       PRES   REMARKS
PUEBLO         MOCLDY    44  36  73 W9        29.90R
LA JUNTA       CLOUDY    49  36  61 NW13      29.86R
LAMAR          LGT RAIN  47  40  76 W17       29.83S
SPRINGFIELD      N/A     35  34  96 W8        29.84S WCI  29
$$



USA.gov is the U.S. government's official web portal to all federal, state and local government web resources and services.